Date String (YYYY-MM-DD hh:mm:ss) UTC,Instrument flags,Ambient pressure (hPa),Sample flow (lpm),Bypass flow (lpm),Sample temperature (°C),Ambient temperature (°C),ASC tube jacket temperature (°C),LED temperature (°C),Box temperature (°C),Sample RH (%),Span deviation,Mass concentration (μg/m³),Mass concentration (μg/m³),Mass concentration (μg/m³)
DateTimeUTC,F1_M11,P_M11,Q1_M11,Q2_M11,T1_M11,T2_M11,T3_M11,T4_M11,T5_M11,U1_M11,ZSPAN_M11,X0_M11,X2_M11,X1_M11
2022-07-23 09:00:00,,0825.1,5.00,0.00,29.6,28.2,00.0,38.4,31.5,20.9,0000.0,0010.82,0005.17,0004.41
2022-07-23 09:01:00,,0825.1,5.01,0.00,29.7,28.3,00.0,38.4,31.6,21.0,0000.0,0011.40,0005.19,0004.40
2022-07-23 09:02:00,,0825.1,5.00,0.00,29.7,28.4,00.0,38.4,31.6,21.1,0000.0,0011.84,0005.22,0004.40
2022-07-23 09:03:00,,0825.1,5.00,0.00,29.7,28.5,00.0,38.4,31.7,21.1,0000.0,0012.23,0005.28,0004.42
2022-07-23 09:04:00,,0825.1,5.00,0.00,29.7,28.6,00.0,38.5,31.7,20.7,0000.0,0012.56,0005.32,0004.44
2022-07-23 09:05:00,,0825.1,4.99,0.00,29.8,28.6,00.0,38.5,31.7,20.6,0000.0,0012.45,0005.29,0004.45
2022-07-23 09:06:00,,0825.1,5.01,0.00,29.8,28.7,00.0,38.5,31.7,20.9,0000.0,0012.35,0005.25,0004.45
2022-07-23 09:07:00,,0825.1,5.00,0.00,29.8,28.6,00.0,38.5,31.8,21.1,0000.0,0012.63,0005.23,0004.46
2022-07-23 09:08:00,,0825.1,5.01,0.00,29.8,27.9,00.0,38.4,31.7,21.2,0000.0,0012.36,0005.18,0004.47
2022-07-23 09:09:00,,0825.1,5.00,0.00,29.8,27.5,00.0,38.4,31.6,21.3,0000.0,0012.34,0005.21,0004.48
2022-07-23 09:10:00,,0825.1,5.00,0.00,29.7,27.4,00.0,38.4,31.5,21.5,0000.0,0012.25,0005.22,0004.50
2022-07-23 09:11:00,,0825.0,5.00,0.00,29.7,27.5,00.0,38.4,31.4,21.6,0000.0,0012.89,0005.21,0004.51
2022-07-23 09:12:00,,0825.0,4.99,0.00,29.6,27.6,00.0,38.4,31.4,21.6,0000.0,0012.99,0005.19,0004.52
2022-07-23 09:13:00,,0825.0,5.01,0.00,29.6,27.7,00.0,38.4,31.4,21.6,0000.0,0012.52,0005.19,0004.52
2022-07-23 09:14:00,,0825.0,5.00,0.00,29.6,27.9,00.0,38.4,31.4,21.6,0000.0,0012.43,0005.15,0004.51
2022-07-23 09:15:00,,0824.9,5.00,0.00,29.6,28.0,00.0,38.4,31.5,21.5,0000.0,0012.30,0005.14,0004.51
2022-07-23 09:16:00,,0824.9,5.00,0.00,29.6,28.1,00.0,38.4,31.5,21.2,0000.0,0011.94,0005.22,0004.53
2022-07-23 09:17:00,,0824.9,5.01,0.00,29.6,28.3,00.0,38.4,31.6,21.1,0000.0,0012.55,0005.27,0004.54
2022-07-23 09:18:00,,0824.9,5.01,0.00,29.7,28.4,00.0,38.4,31.6,21.3,0000.0,0012.73,0005.31,0004.55
2022-07-23 09:19:00,,0824.9,5.00,0.00,29.7,28.4,00.0,38.5,31.6,20.8,0000.0,0012.48,0005.33,0004.54
2022-07-23 09:20:00,,0824.9,4.99,0.00,29.7,28.5,00.0,38.5,31.7,20.4,0000.0,0012.55,0005.33,0004.53
2022-07-23 09:21:00,,0824.9,4.99,0.00,29.7,28.6,00.0,38.5,31.7,20.1,0000.0,0012.34,0005.36,0004.52
2022-07-23 09:22:00,,0824.9,5.00,0.00,29.8,28.7,00.0,38.5,31.7,19.9,0000.0,0011.49,0005.37,0004.51
2022-07-23 09:23:00,,0824.9,5.01,0.00,29.8,28.7,00.0,38.5,31.8,19.9,0000.0,0010.87,0005.35,0004.50
2022-07-23 09:24:00,,0825.0,5.00,0.00,29.8,28.7,00.0,38.5,31.8,19.8,0000.0,0011.04,0005.38,0004.47
2022-07-23 09:25:00,,0825.0,5.00,0.00,29.8,28.0,00.0,38.5,31.7,19.9,0000.0,0011.55,0005.38,0004.46
2022-07-23 09:26:00,,0825.0,5.01,0.00,29.8,27.6,00.0,38.4,31.6,19.8,0000.0,0012.08,0005.38,0004.45
2022-07-23 09:27:00,,0825.0,4.99,0.00,29.8,27.5,00.0,38.4,31.5,19.9,0000.0,0011.93,0005.34,0004.41
2022-07-23 09:28:00,,0825.0,5.01,0.00,29.7,27.5,00.0,38.4,31.4,20.1,0000.0,0011.80,0005.31,0004.39
2022-07-23 09:29:00,,0825.0,5.00,0.00,29.7,27.7,00.0,38.4,31.4,19.9,0000.0,0011.18,0005.24,0004.36
2022-07-23 09:30:00,,0825.0,4.99,0.00,29.6,27.8,00.0,38.4,31.5,19.7,0000.0,0011.06,0005.19,0004.33
2022-07-23 09:31:00,,0825.0,5.01,0.00,29.6,27.9,00.0,38.4,31.5,19.5,0000.0,0010.99,0005.15,0004.31
2022-07-23 09:32:00,,0825.0,5.00,0.00,29.7,28.1,00.0,38.4,31.5,19.4,0000.0,0010.73,0005.02,0004.27
2022-07-23 09:33:00,,0825.0,4.99,0.00,29.7,28.2,00.0,38.4,31.5,19.2,0000.0,0010.96,0004.98,0004.23
2022-07-23 09:34:00,,0825.0,5.00,0.00,29.7,28.3,00.0,38.5,31.6,19.4,0000.0,0011.64,0004.95,0004.20
2022-07-23 09:35:00,,0825.0,5.00,0.00,29.7,28.4,00.0,38.5,31.6,19.4,0000.0,0011.35,0004.89,0004.19
2022-07-23 09:36:00,,0825.1,5.00,0.00,29.7,28.5,00.0,38.5,31.7,19.2,0000.0,0010.62,0004.84,0004.16
2022-07-23 09:37:00,,0825.0,5.00,0.00,29.8,28.6,00.0,38.5,31.7,19.2,0000.0,0009.78,0004.76,0004.13
2022-07-23 09:38:00,,0825.1,5.00,0.00,29.8,28.7,00.0,38.5,31.7,19.2,0000.0,0009.82,0004.73,0004.10
2022-07-23 09:39:00,,0825.0,4.99,0.00,29.8,28.7,00.0,38.5,31.8,18.6,0000.0,0009.74,0004.73,0004.06
2022-07-23 09:40:00,,0825.1,5.01,0.00,29.8,28.8,00.0,38.6,31.8,18.1,0000.0,0009.51,0004.69,0004.01
2022-07-23 09:41:00,,0825.1,5.01,0.00,29.9,28.5,00.0,38.5,31.8,17.9,0000.0,0009.38,0004.63,0003.96
2022-07-23 09:42:00,,0825.1,4.99,0.00,29.8,27.6,00.0,38.5,31.7,17.9,0000.0,0009.28,0004.58,0003.90
2022-07-23 09:43:00,,0825.0,5.00,0.00,29.8,27.0,00.0,38.4,31.5,17.9,0000.0,0009.41,0004.57,0003.85
2022-07-23 09:44:00,,0825.0,5.01,0.00,29.7,27.0,00.0,38.4,31.4,17.9,0000.0,0009.04,0004.51,0003.80
2022-07-23 09:45:00,,0825.0,5.00,0.00,29.6,27.0,00.0,38.4,31.3,18.2,0000.0,0008.24,0004.43,0003.74
2022-07-23 09:46:00,,0825.0,5.00,0.00,29.6,27.2,00.0,38.4,31.3,18.8,0000.0,0008.20,0004.35,0003.68
2022-07-23 09:47:00,,0825.0,4.99,0.00,29.5,27.4,00.0,38.4,31.3,18.8,0000.0,0008.02,0004.26,0003.63
2022-07-23 09:48:00,,0825.0,4.99,0.00,29.5,27.6,00.0,38.4,31.3,19.2,0000.0,0008.29,0004.20,0003.58
2022-07-23 09:49:00,,0824.9,5.01,0.00,29.5,27.7,00.0,38.3,31.4,19.3,0000.0,0008.60,0004.17,0003.54
2022-07-23 09:50:00,,0824.9,5.01,0.00,29.5,27.9,00.0,38.3,31.4,19.5,0000.0,0008.32,0004.08,0003.52
2022-07-23 09:51:00,,0824.9,5.00,0.00,29.5,28.0,00.0,38.3,31.4,19.8,0000.0,0008.30,0004.10,0003.54
2022-07-23 09:52:00,,0824.9,5.00,0.00,29.5,28.1,00.0,38.4,31.5,19.7,0000.0,0008.43,0004.14,0003.56
2022-07-23 09:53:00,,0824.9,5.00,0.00,29.6,28.2,00.0,38.4,31.5,19.7,0000.0,0008.58,0004.19,0003.59
2022-07-23 09:54:00,,0824.9,4.99,0.00,29.6,28.3,00.0,38.4,31.5,19.6,0000.0,0008.50,0004.21,0003.62
2022-07-23 09:55:00,,0825.0,5.01,0.00,29.6,28.4,00.0,38.4,31.6,19.5,0000.0,0008.52,0004.26,0003.66
2022-07-23 09:56:00,,0824.9,5.00,0.00,29.6,28.5,00.0,38.4,31.6,19.6,0000.0,0008.84,0004.35,0003.71
2022-07-23 09:57:00,,0824.9,4.99,0.00,29.7,28.5,00.0,38.4,31.6,19.7,0000.0,0008.94,0004.42,0003.75
2022-07-23 09:58:00,,0824.9,5.00,0.00,29.7,28.6,00.0,38.4,31.7,19.8,0000.0,0009.05,0004.49,0003.79
2022-07-23 09:59:00,,0824.9,5.00,0.00,29.7,28.7,00.0,38.4,31.7,20.3,0000.0,0008.75,0004.54,0003.84
